Location: Six Mile Lake
(44.9000°N, 79.7170°W)
Time: 08:32:07
(UTC-04:00)

AO-109 - Pass Details

Date: 06 July 2022
Orbit: 469 x 506 km, 60.7° (Epoch: 14 August)

Event Time Altitude Azimuth Distance (km) Brightness Sun altitude
Exits shadow 04:29:06 13° 245° (WSW) 1,456 ? -10.3°
Maximum altitude 04:32:10 46° 317° (NW) 657 ? -9.9°
Drops below altitude 10° 04:35:48 10° 32° (NNE) 1,677 ? -9.5°
Sets 04:38:03 0° 39° (NE) 2,569 ? -9.2°
